Погода Бугрино

Поиск расширенной информации на нашем сайте:

Полезная информация:

Новости сайта



02.01.2020
Опубликован Долгосрочный прогноз погоды по городам России и ближнего зарубежья на январь 2020 года.
Карты: Прогноз на январь и февраль 2020 года, Сравнение прогнозируемой аномалии приземной температуры воздуха на январь 2020 года по разным моделям.




Погода Бугрино - сегодня

Время (UTC), дата Ветер
(°,м/с) 
Видим.   Явления Облачность Т
(°С)
Тd
(°С)
f(%) Тe
(°С)
Pmin
(гПа)
dP
(гПа)
Po
(мм)
O2
(г/м3)
Тmin Tmax R s Состояние
почвы
09 29.11.20 220 (ЮЗ) 15-20{20}  4000 м  слаб. ливневой снег  10/10 300 м кучево-дожд. 
[Cb cap]
-0.3 -0.7 97 -6  1026.9  -1.2  769  310           
12 29.11.20 220 (ЮЗ) 13-18{20}  10 км  {ливн. осадки}  10/10 450 м 
[Sc]
+0 -0.6 96 -6  1026.9  769  310           
15 29.11.20 230 (ЮЗ) 12-17{19}  4000 м  слаб. ливневой снег  10/10 300 м кучево-дожд. 
[Cb cap]
+0.4 -0.4 94 -5  1026.6  -0.3  769  310    +0.4  0.0     
18 29.11.20 240 (ЮЗ) 9-12{17}  10 км  позёмок{ливн. осадки}  9/9 300 м кучево-дожд. 
[Cb cap]
-0.6 -0.6 100 -5  1026.5  -0.1  769  311           
21 29.11.20 240 (ЮЗ) 10-13{16}  4000 м  слаб. ливневой снег  9/9 300 м кучево-дожд. 
[Cb cap]
-0.6 -0.6 100 -6  1026.1  -0.4  769  311           
00 30.11.20 230 (ЮЗ) 11-16{19}  4000 м  слаб. ливневой снег  10/10 450 м кучево-дожд. 
[Cb cap]
-0.1 -0.8 95 -5  1025.5  -0.6  768  310           
03 30.11.20 230 (ЮЗ) 12-16{19}  10 км  позёмок{ливн. осадки}  10/10 450 м 
[Sc diur, vesp]
-0.2 -1.3 92 -6  1024.8  -0.7  768  310  -0.7    0.8  равномерный
мокрый или
старый снег
100% 
06 30.11.20 230 (ЮЗ) 13-20{20}  4000 м  слаб. ливневой снег  10/10 300 м кучево-дожд. 
[Cb cap]
-0.3 -1.7 90 -6  1024.4  -0.4  768  310           
09 30.11.20 230 (ЮЗ) 12-19{20}  10 км  слаб. ливневой снег  10/10 300 м кучево-дожд. 
[Cb cap]
-0.6 -0.8 99 -6  1024.2  -0.2  767  310           
12 30.11.20 230 (ЮЗ) 11-16{19}  4000 м  слаб. ливневой снег  10/10 300 м кучево-дожд. 
[Cb cap]
-0.3 -0.7 97 -6  1024  -0.2  767  310           
15 30.11.20 220 (ЮЗ) 12-18{18}  4000 м  слаб. ливневой снег  10/10 300 м кучево-дожд. 
[Cb cap]
+0.1 +0 99 -5  1023  -1  767  309    +0.5  0.0     
18 30.11.20 220 (ЮЗ) 12-17{19}  10 км  позёмок{ливн. осадки}  10/10 330 м 
[St]
-0.2 -0.2 100 -6  1022.5  -0.5  766  309           
21 30.11.20 220 (ЮЗ) 12-17{18}  10 км  позёмок  10/10 500 м 
[Sc]
+0.4 +0 97 -5  1021.7  -0.8  766  308           
00 01.12.20 210 (ЮЗ) 13-17{19}  10 км  {ливн. осадки}  10/10 360 м 
[St]
+0.6 +0.2 97 -5  1019.6  -2.1  764  307           
03 01.12.20 220 (ЮЗ) 12-16{18}  10 км    10/10 800 м 
[Sc]
+0.6 -0.5 92 -5  1017.8  -1.8  763  307  -0.4    0.0  равномерный
мокрый или
старый снег
100% 
06 01.12.20 220 (ЮЗ) 12-17{18}  10 км    10/10 400 м 
[Sc]
+0.8 +0 94 -4  1016.5  -1.3  762  306           
09 01.12.20 220 (ЮЗ) 12-16{18}  10 км  слаб. ливневой дождь  10/10 300 м кучево-дожд. 
[Cb cap]
+1 +0.8 99 -4  1015.2  -1.3  761  305           
12 01.12.20 220 (ЮЗ) 11-18{19}  10 км  слаб. ливневой дождь  10/10 300 м кучево-дожд. 
[Cb cap]
+1 +0.9 99 -4  1013.6  -1.6  759  305           
21 01.12.20 230 (ЮЗ) 14-21{23}  10 км    9/9 900 м 
[Sc]
+1.3 -0.6 87 -4  1010.5  -0.4  757  304           
00 02.12.20 230 (ЮЗ) 13-19{21}  10 км    10/10 480 м 
[Sc]
+1.1 +0 92 -4  1010.9  0.4  757  304           
03 02.12.20 270 (З) 2{20}  2000 м  снег  10/10 200 м 
[Frnb|Ns]
-0.9 -0.9 100 -2  1013  2.2  759  307  -0.9    равномерный
сухой снег
100% 
06 02.12.20 240 (ЮЗ) 10 км  в посл. час снег  10/10 300 м 
[St]
-1.3 -1.3 100 -3  1015.2  2.1  761  308  -1.4         
09 02.12.20 160 (Ю) 10 км    1/0 средняя 
[Ac trans]
-0.3 -0.3 100 -3  1016  0.9  761  307           
12 02.12.20 260 (З) 10 км    3/0 средняя 
[Ac trans]
-4.3 -4.3 100 -8  1017.4  1.3  762  313           
15 02.12.20 250 (З) 10 км    8/4 300 м средняя, верхняя 
[Sc|Ac trans|Ci fib]
-0.9 -1 99 -4  1018.4  763  309    -0.1  0.6     
Время (UTC), дата Ветер
(°,м/с) 
Видим.   Явления Облачность Т
(°С)
Тd
(°С)
f(%) Тe
(°С)
Pmin
(гПа)
dP
(гПа)
Po
(мм)
O2
(г/м3)
Тmin Tmax R s Состояние
почвы

Для получения пояснительной информации подведите курсор к названию столбца.

ПОГОДА Бугрино - архив

Всё, что Вы хотите узнать о погоде Бугрино - удобно и подробно!

Выберите нужную дату (начиная с 1 января 2019* года) и нажмите кнопку "Найти".
Будут отображены архивные сводки погоды по пункту Бугрино, начиная с указанной даты.


Отображать данные в формате CSV (для использования в таблицах Excel)


Внимание! Наш архив погоды предназначен исключительно для личного некоммерческого использования в познавательных целях. Если Вам необходимы официальные справки о состоянии погоды (для производственных, юридических, коммерческих и т.п. целей), обращайтесь в органы Росгидромета.

*Примечание: данная дата относится к архиву по метеостанциям СССР (Россия, СНГ, Балтия).
Архив по метеостанциям Зарубежной Европы и Азии (кроме Китая) хранится 10 дней, по другим регионам земного шара (Китай, Африка, Америка, Австралия, Океания) - 1 день.

Бугрино - район местоположения метеостанции


Название, широта, долгота, высота метеостанции:
Бугрино 68.8°ш. 49.2°д. 11 м над ур. моря [Российская Федерация]

Дополнительная информация

В oтличие oт бoльшинства пoгoдных сайтoв мы публикуем пoдрoбную метеoинфoрмацию в детальнoм прoфессиoнальнoм фoрмате.

Характеристики температуры и влажнoсти вoздуха измеряются на высoте 2 м в тени вдали oт зданий и деревьев.
Скoрoсть ветра измеряется на высoте 10 м (на урoвне рoста челoвека скoрoсть ветра ниже в 1.5-2 раза). Если метеoстанция нахoдится в гoрoде или в лесу, тo скoрoсть ветра занижена на 2-4 м/с пo сравнению с oткрытым местoм. Скoрoсть ветра над акватoриями крупных рек и oзёр, а также на вершинах хoлмoв на 2-5 м/с выше, чем в oбычных услoвиях.
Атмoсфернoе давление в разных тoчках местнoсти мoжет значительнo oтличаться oт давления на метеoстанции, в зависимoсти oт услoвий рельефа (при пoдъёме на 10 м давление пoнижается примернo на 1 мм рт.ст.).